This is the latest recevied weather packets stored in our database for station/object GW4003. If no packets are shown the sender has not sent any weather packets the latest 1 day(s).
| Time | Temp. | Humidity | Pressure | Rain* | Wind** | Luminosity | Snow |
|---|---|---|---|---|---|---|---|
| 1778027656 | 0.56° C | 90% | 1014.8 hPa | 0 mm | 0.89 m/s, 47° | - | - |
| 1778027353 | 0.56° C | 89% | 1014.8 hPa | 0 mm | 0.45 m/s, 303° | - | - |
| 1778027050 | 0.56° C | 89% | 1014.9 hPa | 0 mm | 0.45 m/s, 308° | - | - |
| 1778026746 | 0.56° C | 89% | 1014.7 hPa | 0 mm | 0.45 m/s, 308° | - | - |
| 1778026443 | 0.56° C | 89% | 1014.8 hPa | 0 mm | 0.45 m/s, 312° | - | - |
| 1778026139 | 0.56° C | 89% | 1014.5 hPa | 0 mm | 0 m/s | - | - |
| 1778025836 | 0.56° C | 89% | 1014.6 hPa | 0 mm | 1.79 m/s, 319° | - | - |
| 1778025533 | 0.56° C | 89% | 1014.4 hPa | 0 mm | 0.45 m/s, 328° | - | - |
| 1778025229 | 0.56° C | 89% | 1014.5 hPa | 0.25 mm | 0 m/s | - | - |
| 1778024926 | 0.56° C | 89% | 1014.4 hPa | 0.25 mm | 0.89 m/s, 360° | - | - |
| 1778024623 | 0.56° C | 89% | 1014.3 hPa | 0.51 mm | 0.89 m/s, 309° | - | - |
| 1778024320 | 0.56° C | 88% | 1014.3 hPa | 0.51 mm | 0.89 m/s, 336° | - | - |
| 1778024016 | 0.56° C | 88% | 1014.1 hPa | 0.76 mm | 2.24 m/s, 5° | - | - |
| 1778023713 | 0.56° C | 88% | 1014.2 hPa | 1.02 mm | 0.89 m/s, 273° | - | - |
| 1778023410 | 0.56° C | 88% | 1014 hPa | 1.02 mm | 1.79 m/s, 360° | - | - |
| 1778023106 | 1.11° C | 88% | 1013.9 hPa | 1.02 mm | 1.34 m/s, 317° | - | - |
| 1778022803 | 1.11° C | 88% | 1014 hPa | 1.02 mm | 0.45 m/s, 360° | - | - |
| 1778022499 | 1.67° C | 88% | 1014 hPa | 1.27 mm | 2.68 m/s, 317° | - | - |
| 1778022196 | 1.67° C | 88% | 1014.1 hPa | 1.27 mm | 0.89 m/s, 325° | - | - |
| 1778021893 | 2.22° C | 88% | 1014.2 hPa | 1.02 mm | 0.89 m/s, 282° | - | - |
| 1778021589 | 2.22° C | 88% | 1014.3 hPa | 1.02 mm | 3.13 m/s, 301° | - | - |
| 1778021286 | 2.78° C | 88% | 1014 hPa | 1.02 mm | 2.68 m/s, 331° | - | - |
| 1778020983 | 2.78° C | 88% | 1013.8 hPa | 1.27 mm | 0.89 m/s, 306° | - | - |
| 1778020680 | 2.78° C | 88% | 1013.8 hPa | 1.02 mm | 1.79 m/s, 15° | - | - |
| 1778020377 | 2.78° C | 88% | 1013.6 hPa | 1.02 mm | 0.45 m/s, 94° | - | - |
* Rain latest hour (hover to see other rain measurements)
** Current wind speed in m/s (hover to see current wind gust speed)